Tabellarische Ansicht des 27.7.2021


Die einzelnen Werte des Tages

Uhrzeit Temperatur Luftdruck Luftfeuchte Wind Hi-Wind Taupunkt THW Index Wind Chill Heat Index Solar- strahlung Regen

00:00

18.7 C

1007.4 hpa

79 %

0.0 km/h aus 117

0.0 km/h aus ---

15.0 C

19.2 C

18.7 C

19.2 C

0 W/m

0.00 mm

00:05

18.7 C

1007.4 hpa

80 %

0.0 km/h aus 115

0.0 km/h aus ---

15.1 C

19.1 C

18.7 C

19.1 C

0 W/m

0.00 mm

00:10

18.6 C

1007.4 hpa

79 %

0.0 km/h aus 114

1.6 km/h aus S

14.8 C

18.9 C

18.6 C

18.9 C

0 W/m

0.00 mm

00:15

18.4 C

1007.5 hpa

79 %

0.0 km/h aus 114

3.2 km/h aus S

14.7 C

18.8 C

18.4 C

18.8 C

0 W/m

0.00 mm

00:20

18.4 C

1007.5 hpa

80 %

0.0 km/h aus 116

4.8 km/h aus S

14.9 C

18.8 C

18.4 C

18.8 C

0 W/m

0.00 mm

00:25

18.4 C

1007.5 hpa

81 %

1.6 km/h aus 116

4.8 km/h aus S

15.1 C

18.8 C

18.4 C

18.8 C

0 W/m

0.00 mm

00:30

18.3 C

1007.5 hpa

82 %

1.6 km/h aus 117

4.8 km/h aus S

15.2 C

18.7 C

18.3 C

18.7 C

0 W/m

0.00 mm

00:35

18.3 C

1007.5 hpa

83 %

3.2 km/h aus 114

6.4 km/h aus S

15.4 C

18.8 C

18.3 C

18.8 C

0 W/m

0.00 mm

00:40

18.3 C

1007.5 hpa

83 %

3.2 km/h aus 115

6.4 km/h aus S

15.4 C

18.8 C

18.3 C

18.8 C

0 W/m

0.00 mm

00:45

18.3 C

1007.5 hpa

84 %

3.2 km/h aus 117

6.4 km/h aus S

15.6 C

18.8 C

18.3 C

18.8 C

0 W/m

0.00 mm

00:50

18.3 C

1007.5 hpa

84 %

1.6 km/h aus 117

4.8 km/h aus S

15.6 C

18.8 C

18.3 C

18.8 C

0 W/m

0.00 mm

00:55

18.4 C

1007.5 hpa

85 %

3.2 km/h aus 116

6.4 km/h aus S

15.8 C

18.8 C

18.4 C

18.8 C

0 W/m

0.00 mm

01:00

18.4 C

1007.5 hpa

85 %

4.8 km/h aus 115

8.0 km/h aus S

15.8 C

18.8 C

18.4 C

18.8 C

0 W/m

0.00 mm

01:05

18.4 C

1007.5 hpa

85 %

4.8 km/h aus 116

8.0 km/h aus S

15.8 C

18.8 C

18.4 C

18.8 C

0 W/m

0.00 mm

01:10

18.4 C

1007.5 hpa

85 %

6.4 km/h aus 117

11.3 km/h aus S

15.8 C

18.8 C

18.4 C

18.8 C

0 W/m

0.00 mm

01:15

18.4 C

1007.5 hpa

84 %

9.7 km/h aus 117

16.1 km/h aus S

15.6 C

18.8 C

18.4 C

18.8 C

0 W/m

0.00 mm

01:20

18.4 C

1007.5 hpa

84 %

11.3 km/h aus 114

17.7 km/h aus SSW

15.7 C

18.9 C

18.4 C

18.9 C

0 W/m

0.00 mm

01:25

18.4 C

1007.5 hpa

84 %

12.9 km/h aus 116

17.7 km/h aus S

15.7 C

18.6 C

18.1 C

18.9 C

0 W/m

0.00 mm

01:30

18.5 C

1007.4 hpa

84 %

9.7 km/h aus 117

16.1 km/h aus S

15.7 C

18.9 C

18.5 C

18.9 C

0 W/m

0.00 mm

01:35

18.7 C

1007.4 hpa

84 %

8.0 km/h aus 117

16.1 km/h aus S

15.9 C

19.2 C

18.7 C

19.2 C

0 W/m

0.00 mm

01:40

18.8 C

1007.4 hpa

84 %

8.0 km/h aus 116

14.5 km/h aus S

16.0 C

19.3 C

18.8 C

19.3 C

0 W/m

0.00 mm

01:45

18.8 C

1007.4 hpa

83 %

9.7 km/h aus 115

19.3 km/h aus S

15.9 C

19.3 C

18.8 C

19.3 C

0 W/m

0.00 mm

01:50

18.9 C

1007.4 hpa

83 %

9.7 km/h aus 117

16.1 km/h aus S

15.9 C

19.4 C

18.9 C

19.4 C

0 W/m

0.00 mm

01:55

18.9 C

1007.4 hpa

83 %

9.7 km/h aus 116

16.1 km/h aus S

16.0 C

19.5 C

18.9 C

19.5 C

0 W/m

0.00 mm

02:00

18.9 C

1007.4 hpa

83 %

11.3 km/h aus 116

16.1 km/h aus SSW

16.0 C

19.5 C

18.9 C

19.5 C

0 W/m

0.00 mm

02:05

18.9 C

1007.4 hpa

83 %

11.3 km/h aus 115

17.7 km/h aus S

16.0 C

19.5 C

18.9 C

19.5 C

0 W/m

0.00 mm

02:10

18.9 C

1007.4 hpa

82 %

12.9 km/h aus 116

20.9 km/h aus S

15.8 C

19.2 C

18.6 C

19.5 C

0 W/m

0.00 mm

02:15

18.9 C

1007.3 hpa

82 %

11.3 km/h aus 117

20.9 km/h aus S

15.8 C

19.5 C

18.9 C

19.5 C

0 W/m

0.00 mm

02:20

18.9 C

1007.3 hpa

82 %

11.3 km/h aus 116

19.3 km/h aus S

15.8 C

19.5 C

18.9 C

19.5 C

0 W/m

0.00 mm

02:25

18.9 C

1007.3 hpa

82 %

11.3 km/h aus 115

17.7 km/h aus S

15.8 C

19.5 C

18.9 C

19.5 C

0 W/m

0.00 mm

02:30

18.9 C

1007.2 hpa

82 %

11.3 km/h aus 116

17.7 km/h aus S

15.7 C

19.4 C

18.9 C

19.4 C

0 W/m

0.00 mm

02:35

18.9 C

1007.2 hpa

82 %

12.9 km/h aus 116

20.9 km/h aus S

15.7 C

19.1 C

18.6 C

19.4 C

0 W/m

0.00 mm

02:40

18.8 C

1007.2 hpa

82 %

11.3 km/h aus 117

19.3 km/h aus S

15.7 C

19.3 C

18.8 C

19.3 C

0 W/m

0.00 mm

02:45

18.7 C

1007.1 hpa

82 %

9.7 km/h aus 116

17.7 km/h aus SSW

15.6 C

19.2 C

18.7 C

19.2 C

0 W/m

0.00 mm

02:50

18.7 C

1007.1 hpa

82 %

9.7 km/h aus 114

16.1 km/h aus SSW

15.6 C

19.2 C

18.7 C

19.2 C

0 W/m

0.00 mm

02:55

18.7 C

1007.1 hpa

82 %

9.7 km/h aus 117

17.7 km/h aus S

15.5 C

19.2 C

18.7 C

19.2 C

0 W/m

0.00 mm

03:00

18.6 C

1007.0 hpa

83 %

11.3 km/h aus 115

17.7 km/h aus S

15.7 C

19.1 C

18.6 C

19.1 C

0 W/m

0.00 mm

03:05

18.6 C

1007.0 hpa

83 %

11.3 km/h aus 118

16.1 km/h aus S

15.6 C

19.0 C

18.6 C

19.0 C

0 W/m

0.00 mm

03:10

18.5 C

1007.0 hpa

83 %

8.0 km/h aus 114

14.5 km/h aus S

15.6 C

18.9 C

18.5 C

18.9 C

0 W/m

0.00 mm

03:15

18.4 C

1006.9 hpa

83 %

6.4 km/h aus 116

12.9 km/h aus SSW

15.5 C

18.9 C

18.4 C

18.9 C

0 W/m

0.00 mm

03:20

18.3 C

1006.9 hpa

83 %

8.0 km/h aus 117

14.5 km/h aus SSW

15.4 C

18.8 C

18.3 C

18.8 C

0 W/m

0.00 mm

03:25

18.3 C

1006.9 hpa

83 %

8.0 km/h aus 116

12.9 km/h aus SSW

15.4 C

18.8 C

18.3 C

18.8 C

0 W/m

0.00 mm

03:30

18.3 C

1007.0 hpa

83 %

9.7 km/h aus 116

14.5 km/h aus S

15.3 C

18.7 C

18.3 C

18.7 C

0 W/m

0.00 mm

03:35

18.2 C

1007.0 hpa

83 %

8.0 km/h aus 114

11.3 km/h aus S

15.3 C

18.6 C

18.2 C

18.6 C

0 W/m

0.00 mm

03:40

18.2 C

1007.0 hpa

83 %

6.4 km/h aus 117

8.0 km/h aus S

15.2 C

18.6 C

18.2 C

18.6 C

0 W/m

0.00 mm

03:45

18.1 C

1007.0 hpa

83 %

4.8 km/h aus 117

8.0 km/h aus S

15.2 C

18.5 C

18.1 C

18.5 C

0 W/m

0.00 mm

03:50

18.1 C

1007.0 hpa

84 %

0.0 km/h aus 117

6.4 km/h aus S

15.3 C

18.4 C

18.1 C

18.4 C

0 W/m

0.00 mm

03:55

18.0 C

1007.0 hpa

84 %

1.6 km/h aus 113

6.4 km/h aus S

15.3 C

18.4 C

18.0 C

18.4 C

0 W/m

0.00 mm

04:00

17.9 C

1007.3 hpa

84 %

3.2 km/h aus 114

8.0 km/h aus S

15.2 C

18.3 C

17.9 C

18.3 C

0 W/m

0.00 mm

04:05

17.9 C

1007.3 hpa

84 %

6.4 km/h aus 116

16.1 km/h aus S

15.1 C

18.2 C

17.9 C

18.2 C

0 W/m

0.00 mm

04:10

17.8 C

1007.3 hpa

84 %

9.7 km/h aus 117

16.1 km/h aus S

15.1 C

18.2 C

17.8 C

18.2 C

0 W/m

0.00 mm

04:15

17.8 C

1007.4 hpa

85 %

11.3 km/h aus 117

17.7 km/h aus SSW

15.2 C

18.1 C

17.8 C

18.1 C

0 W/m

0.00 mm

04:20

17.7 C

1007.4 hpa

85 %

9.7 km/h aus 114

17.7 km/h aus S

15.2 C

18.1 C

17.7 C

18.1 C

0 W/m

0.00 mm

04:25

17.7 C

1007.4 hpa

85 %

9.7 km/h aus 116

17.7 km/h aus S

15.2 C

18.1 C

17.7 C

18.1 C

0 W/m

0.00 mm

04:30

17.7 C

1007.4 hpa

85 %

6.4 km/h aus 117

17.7 km/h aus SSW

15.1 C

18.0 C

17.7 C

18.0 C

0 W/m

0.00 mm

04:35

17.7 C

1007.4 hpa

85 %

8.0 km/h aus 116

16.1 km/h aus S

15.1 C

18.0 C

17.7 C

18.0 C

0 W/m

0.00 mm

04:40

17.6 C

1007.4 hpa

86 %

8.0 km/h aus 116

14.5 km/h aus SSW

15.2 C

17.9 C

17.6 C

17.9 C

0 W/m

0.00 mm

04:45

17.6 C

1007.4 hpa

86 %

8.0 km/h aus 113

14.5 km/h aus SSW

15.2 C

17.9 C

17.6 C

17.9 C

0 W/m

0.00 mm

04:50

17.6 C

1007.4 hpa

86 %

9.7 km/h aus 117

16.1 km/h aus S

15.2 C

17.9 C

17.6 C

17.9 C

0 W/m

0.00 mm

04:55

17.6 C

1007.4 hpa

86 %

9.7 km/h aus 117

17.7 km/h aus S

15.2 C

17.9 C

17.6 C

17.9 C

0 W/m

0.00 mm

05:00

17.6 C

1007.4 hpa

86 %

8.0 km/h aus 116

16.1 km/h aus S

15.2 C

17.9 C

17.6 C

17.9 C

0 W/m

0.00 mm

05:05

17.6 C

1007.4 hpa

86 %

9.7 km/h aus 114

19.3 km/h aus SSW

15.2 C

17.9 C

17.6 C

17.9 C

0 W/m

0.00 mm

05:10

17.6 C

1007.4 hpa

86 %

4.8 km/h aus 114

17.7 km/h aus S

15.2 C

17.9 C

17.6 C

17.9 C

0 W/m

0.00 mm

05:15

17.6 C

1007.5 hpa

86 %

8.0 km/h aus 117

17.7 km/h aus S

15.2 C

17.9 C

17.6 C

17.9 C

0 W/m

0.00 mm

05:20

17.6 C

1007.5 hpa

87 %

8.0 km/h aus 117

16.1 km/h aus S

15.4 C

17.9 C

17.6 C

17.9 C

0 W/m

0.00 mm

05:25

17.6 C

1007.5 hpa

87 %

8.0 km/h aus 117

16.1 km/h aus S

15.4 C

18.0 C

17.6 C

18.0 C

0 W/m

0.00 mm

05:30

17.6 C

1007.5 hpa

87 %

9.7 km/h aus 114

17.7 km/h aus SW

15.4 C

18.0 C

17.6 C

18.0 C

0 W/m

0.00 mm

05:35

17.7 C

1007.5 hpa

87 %

8.0 km/h aus 116

14.5 km/h aus SSW

15.5 C

18.1 C

17.7 C

18.1 C

0 W/m

0.00 mm

05:40

17.7 C

1007.5 hpa

87 %

8.0 km/h aus 117

14.5 km/h aus S

15.5 C

18.1 C

17.7 C

18.1 C

3 W/m

0.00 mm

05:45

17.7 C

1007.5 hpa

87 %

6.4 km/h aus 117

11.3 km/h aus SSW

15.5 C

18.1 C

17.7 C

18.1 C

5 W/m

0.00 mm

05:50

17.7 C

1007.5 hpa

87 %

8.0 km/h aus 115

16.1 km/h aus SSW

15.5 C

18.1 C

17.7 C

18.1 C

7 W/m

0.00 mm

05:55

17.7 C

1007.5 hpa

87 %

8.0 km/h aus 114

16.1 km/h aus S

15.5 C

18.1 C

17.7 C

18.1 C

13 W/m

0.00 mm

06:00

17.7 C

1007.8 hpa

87 %

9.7 km/h aus 117

16.1 km/h aus S

15.5 C

18.1 C

17.7 C

18.1 C

23 W/m

0.00 mm

06:05

17.7 C

1007.8 hpa

87 %

8.0 km/h aus 116

11.3 km/h aus S

15.5 C

18.1 C

17.7 C

18.1 C

36 W/m

0.00 mm

06:10

17.7 C

1007.8 hpa

87 %

9.7 km/h aus 117

17.7 km/h aus SSE

15.5 C

18.1 C

17.7 C

18.1 C

45 W/m

0.00 mm

06:15

17.8 C

1007.7 hpa

87 %

8.0 km/h aus 113

14.5 km/h aus SSE

15.6 C

18.2 C

17.8 C

18.2 C

39 W/m

0.00 mm

06:20

17.8 C

1007.7 hpa

87 %

9.7 km/h aus 116

19.3 km/h aus S

15.6 C

18.2 C

17.8 C

18.2 C

27 W/m

0.00 mm

06:25

17.8 C

1007.7 hpa

87 %

9.7 km/h aus 115

16.1 km/h aus S

15.6 C

18.2 C

17.8 C

18.2 C

32 W/m

0.00 mm

06:30

17.8 C

1007.8 hpa

87 %

8.0 km/h aus 116

11.3 km/h aus SSE

15.6 C

18.2 C

17.8 C

18.2 C

38 W/m

0.00 mm

06:35

17.8 C

1007.8 hpa

87 %

8.0 km/h aus 115

16.1 km/h aus S

15.6 C

18.2 C

17.8 C

18.2 C

39 W/m

0.00 mm

06:40

17.8 C

1007.8 hpa

87 %

9.7 km/h aus 114

17.7 km/h aus S

15.6 C

18.2 C

17.8 C

18.2 C

40 W/m

0.00 mm

06:45

17.8 C

1007.9 hpa

87 %

8.0 km/h aus 117

16.1 km/h aus S

15.6 C

18.2 C

17.8 C

18.2 C

33 W/m

0.00 mm

06:50

17.8 C

1007.9 hpa

87 %

3.2 km/h aus 116

9.7 km/h aus SSW

15.6 C

18.2 C

17.8 C

18.2 C

33 W/m

0.00 mm

06:55

17.8 C

1007.9 hpa

87 %

3.2 km/h aus 116

8.0 km/h aus S

15.6 C

18.2 C

17.8 C

18.2 C

45 W/m

0.00 mm

07:00

17.8 C

1007.9 hpa

87 %

3.2 km/h aus 115

8.0 km/h aus S

15.6 C

18.2 C

17.8 C

18.2 C

78 W/m

0.00 mm

07:05

17.9 C

1007.9 hpa

88 %

8.0 km/h aus 116

17.7 km/h aus S

15.9 C

18.3 C

17.9 C

18.3 C

105 W/m

0.00 mm

07:10

17.9 C

1007.9 hpa

88 %

8.0 km/h aus 116

12.9 km/h aus S

15.9 C

18.4 C

17.9 C

18.4 C

97 W/m

0.00 mm

07:15

18.0 C

1007.9 hpa

88 %

12.9 km/h aus 117

20.9 km/h aus S

16.0 C

18.1 C

17.6 C

18.4 C

116 W/m

0.00 mm

07:20

18.1 C

1007.9 hpa

88 %

12.9 km/h aus 117

20.9 km/h aus S

16.1 C

18.2 C

17.7 C

18.6 C

66 W/m

0.00 mm

07:25

18.2 C

1007.9 hpa

88 %

9.7 km/h aus 113

16.1 km/h aus S

16.1 C

18.7 C

18.2 C

18.7 C

70 W/m

0.00 mm

07:30

18.2 C

1007.8 hpa

87 %

11.3 km/h aus 115

17.7 km/h aus S

16.0 C

18.6 C

18.2 C

18.6 C

99 W/m

0.00 mm

07:35

18.2 C

1007.8 hpa

87 %

9.7 km/h aus 116

17.7 km/h aus S

16.0 C

18.7 C

18.2 C

18.7 C

114 W/m

0.00 mm

07:40

18.3 C

1007.8 hpa

87 %

8.0 km/h aus 117

16.1 km/h aus SSW

16.1 C

18.8 C

18.3 C

18.8 C

94 W/m

0.00 mm

07:45

18.3 C

1007.9 hpa

87 %

12.9 km/h aus 115

17.7 km/h aus SSE

16.1 C

18.5 C

18.0 C

18.8 C

71 W/m

0.00 mm

07:50

18.4 C

1007.9 hpa

87 %

12.9 km/h aus 114

17.7 km/h aus S

16.2 C

18.6 C

18.1 C

18.9 C

96 W/m

0.00 mm

07:55

18.4 C

1007.9 hpa

87 %

9.7 km/h aus 117

17.7 km/h aus S

16.2 C

18.9 C

18.4 C

18.9 C

76 W/m

0.00 mm

08:00

18.4 C

1007.9 hpa

86 %

9.7 km/h aus 117

19.3 km/h aus S

16.1 C

18.9 C

18.4 C

18.9 C

72 W/m

0.00 mm

08:05

18.5 C

1007.9 hpa

86 %

12.9 km/h aus 115

20.9 km/h aus SSE

16.1 C

18.7 C

18.2 C

19.0 C

60 W/m

0.00 mm

08:10

18.5 C

1007.9 hpa

86 %

8.0 km/h aus 114

16.1 km/h aus SW

16.1 C

19.0 C

18.5 C

19.0 C

73 W/m

0.00 mm

08:15

18.4 C

1007.9 hpa

85 %

3.2 km/h aus 116

11.3 km/h aus SW

15.9 C

18.9 C

18.4 C

18.9 C

52 W/m

0.00 mm

08:20

18.5 C

1007.9 hpa

85 %

4.8 km/h aus 117

20.9 km/h aus S

15.9 C

19.0 C

18.5 C

19.0 C

85 W/m

0.00 mm

08:25

18.6 C

1007.9 hpa

85 %

6.4 km/h aus 116

17.7 km/h aus S

16.0 C

19.1 C

18.6 C

19.1 C

97 W/m

0.00 mm

08:30

18.6 C

1007.9 hpa

85 %

9.7 km/h aus 114

17.7 km/h aus S

16.0 C

19.1 C

18.6 C

19.1 C

82 W/m

0.00 mm

08:35

18.6 C

1007.9 hpa

85 %

8.0 km/h aus 114

17.7 km/h aus SSW

16.0 C

19.1 C

18.6 C

19.1 C

75 W/m

0.00 mm

08:40

18.6 C

1007.9 hpa

85 %

1.6 km/h aus 117

6.4 km/h aus SW

16.0 C

19.1 C

18.6 C

19.1 C

93 W/m

0.00 mm

08:45

18.7 C

1008.0 hpa

85 %

4.8 km/h aus 117

12.9 km/h aus S

16.1 C

19.2 C

18.7 C

19.2 C

90 W/m

0.00 mm

08:50

18.7 C

1008.0 hpa

84 %

11.3 km/h aus 116

17.7 km/h aus S

16.0 C

19.2 C

18.7 C

19.2 C

101 W/m

0.00 mm

08:55

18.8 C

1008.0 hpa

84 %

6.4 km/h aus 114

14.5 km/h aus S

16.0 C

19.3 C

18.8 C

19.3 C

103 W/m

0.00 mm

09:00

18.8 C

1008.1 hpa

84 %

11.3 km/h aus 117

20.9 km/h aus S

16.1 C

19.4 C

18.8 C

19.4 C

110 W/m

0.00 mm

09:05

18.9 C

1008.1 hpa

84 %

14.5 km/h aus 116

22.5 km/h aus S

16.1 C

18.7 C

18.2 C

19.4 C

125 W/m

0.00 mm

09:10

19.0 C

1008.1 hpa

83 %

9.7 km/h aus 117

19.3 km/h aus SSW

16.0 C

19.6 C

19.0 C

19.6 C

171 W/m

0.00 mm

09:15

19.1 C

1008.2 hpa

83 %

11.3 km/h aus 114

22.5 km/h aus S

16.2 C

19.7 C

19.1 C

19.7 C

184 W/m

0.00 mm

09:20

19.5 C

1008.2 hpa

82 %

12.9 km/h aus 116

20.9 km/h aus S

16.3 C

19.8 C

19.2 C

20.2 C

268 W/m

0.00 mm

09:25

19.6 C

1008.2 hpa

81 %

8.0 km/h aus 118

20.9 km/h aus SSW

16.2 C

20.2 C

19.6 C

20.2 C

209 W/m

0.00 mm

09:30

19.7 C

1008.2 hpa

80 %

6.4 km/h aus 116

20.9 km/h aus SSW

16.1 C

20.3 C

19.7 C

20.3 C

205 W/m

0.00 mm

09:35

19.7 C

1008.2 hpa

79 %

4.8 km/h aus 116

16.1 km/h aus SSW

15.9 C

20.3 C

19.7 C

20.3 C

152 W/m

0.00 mm

09:40

19.7 C

1008.2 hpa

80 %

6.4 km/h aus 112

16.1 km/h aus SSW

16.2 C

20.4 C

19.7 C

20.4 C

147 W/m

0.00 mm

09:45

19.8 C

1008.4 hpa

79 %

6.4 km/h aus 117

16.1 km/h aus SSW

16.0 C

20.4 C

19.8 C

20.4 C

134 W/m

0.00 mm

09:50

19.8 C

1008.4 hpa

79 %

6.4 km/h aus 116

17.7 km/h aus SW

16.1 C

20.5 C

19.8 C

20.5 C

255 W/m

0.00 mm

09:55

19.9 C

1008.4 hpa

80 %

8.0 km/h aus 117

17.7 km/h aus SSW

16.3 C

20.6 C

19.9 C

20.6 C

288 W/m

0.00 mm

10:00

20.3 C

1008.4 hpa

79 %

6.4 km/h aus 112

14.5 km/h aus W

16.5 C

21.0 C

20.3 C

21.0 C

449 W/m

0.00 mm

10:05

20.4 C

1008.4 hpa

77 %

6.4 km/h aus 116

17.7 km/h aus SW

16.3 C

21.1 C

20.4 C

21.1 C

380 W/m

0.00 mm

10:10

20.6 C

1008.4 hpa

76 %

9.7 km/h aus 117

16.1 km/h aus SSW

16.2 C

21.2 C

20.6 C

21.2 C

524 W/m

0.00 mm

10:15

20.7 C

1008.4 hpa

76 %

6.4 km/h aus 117

14.5 km/h aus SSW

16.3 C

21.3 C

20.7 C

21.3 C

279 W/m

0.00 mm

10:20

20.6 C

1008.4 hpa

75 %

11.3 km/h aus 115

20.9 km/h aus SW

16.0 C

21.2 C

20.6 C

21.2 C

163 W/m

0.00 mm

10:25

20.6 C

1008.4 hpa

75 %

8.0 km/h aus 115

20.9 km/h aus S

16.0 C

21.2 C

20.6 C

21.2 C

111 W/m

0.00 mm

10:30

20.6 C

1008.4 hpa

75 %

6.4 km/h aus 118

16.1 km/h aus SSW

16.0 C

21.1 C

20.6 C

21.1 C

192 W/m

0.00 mm

10:35

20.8 C

1008.4 hpa

77 %

4.8 km/h aus 117

14.5 km/h aus WSW

16.6 C

21.3 C

20.8 C

21.3 C

555 W/m

0.00 mm

10:40

21.2 C

1008.4 hpa

73 %

6.4 km/h aus 116

16.1 km/h aus S

16.2 C

21.4 C

21.2 C

21.4 C

485 W/m

0.00 mm

10:45

21.6 C

1008.5 hpa

75 %

9.7 km/h aus 113

19.3 km/h aus SW

16.9 C

22.0 C

21.6 C

22.0 C

600 W/m

0.00 mm

10:50

22.2 C

1008.5 hpa

72 %

8.0 km/h aus 116

17.7 km/h aus S

16.9 C

22.7 C

22.2 C

22.7 C

587 W/m

0.00 mm

10:55

21.9 C

1008.5 hpa

72 %

8.0 km/h aus 116

20.9 km/h aus WSW

16.6 C

22.3 C

21.9 C

22.3 C

383 W/m

0.00 mm

11:00

21.8 C

1008.6 hpa

71 %

9.7 km/h aus 117

24.1 km/h aus S

16.3 C

22.1 C

21.8 C

22.1 C

256 W/m

0.00 mm

11:05

21.7 C

1008.6 hpa

73 %

11.3 km/h aus 114

24.1 km/h aus S

16.7 C

22.1 C

21.7 C

22.1 C

425 W/m

0.00 mm

11:10

22.4 C

1008.6 hpa

69 %

17.7 km/h aus 115

25.7 km/h aus S

16.5 C

21.4 C

21.0 C

22.9 C

549 W/m

0.00 mm

11:15

22.1 C

1008.7 hpa

69 %

11.3 km/h aus 116

22.5 km/h aus SSW

16.1 C

22.3 C

22.1 C

22.3 C

344 W/m

0.00 mm

11:20

21.8 C

1008.7 hpa

70 %

9.7 km/h aus 116

24.1 km/h aus SSW

16.1 C

22.1 C

21.8 C

22.1 C

395 W/m

0.00 mm

11:25

22.1 C

1008.7 hpa

69 %

8.0 km/h aus 115

19.3 km/h aus SW

16.1 C

22.3 C

22.1 C

22.3 C

465 W/m

0.00 mm

11:30

22.0 C

1008.6 hpa

68 %

6.4 km/h aus 115

17.7 km/h aus WSW

15.8 C

22.2 C

22.0 C

22.2 C

375 W/m

0.00 mm

11:35

21.9 C

1008.6 hpa

70 %

8.0 km/h aus 117

19.3 km/h aus SSW

16.2 C

22.2 C

21.9 C

22.2 C

378 W/m

0.00 mm

11:40

22.2 C

1008.6 hpa

69 %

8.0 km/h aus 117

17.7 km/h aus SSW

16.3 C

22.6 C

22.2 C

22.6 C

523 W/m

0.00 mm

11:45

22.4 C

1008.4 hpa

68 %

6.4 km/h aus 116

17.7 km/h aus S

16.2 C

22.8 C

22.4 C

22.8 C

442 W/m

0.00 mm

11:50

22.4 C

1008.4 hpa

69 %

11.3 km/h aus 112

24.1 km/h aus S

16.5 C

22.9 C

22.4 C

22.9 C

464 W/m

0.00 mm

11:55

22.8 C

1008.4 hpa

68 %

9.7 km/h aus 117

17.7 km/h aus S

16.6 C

23.4 C

22.8 C

23.4 C

574 W/m

0.00 mm

12:00

22.9 C

1008.4 hpa

67 %

9.7 km/h aus 116

20.9 km/h aus S

16.4 C

23.4 C

22.9 C

23.4 C

551 W/m

0.00 mm

12:05

22.8 C

1008.4 hpa

67 %

11.3 km/h aus 116

25.7 km/h aus SSW

16.4 C

23.3 C

22.8 C

23.3 C

479 W/m

0.00 mm

12:10

23.1 C

1008.4 hpa

68 %

9.7 km/h aus 114

17.7 km/h aus SSW

16.8 C

23.7 C

23.1 C

23.7 C

502 W/m

0.00 mm

12:15

22.7 C

1008.4 hpa

65 %

8.0 km/h aus 116

19.3 km/h aus SSW

15.8 C

23.1 C

22.7 C

23.1 C

512 W/m

0.00 mm

12:20

22.8 C

1008.4 hpa

66 %

9.7 km/h aus 115

22.5 km/h aus SSW

16.1 C

23.2 C

22.8 C

23.2 C

429 W/m

0.00 mm

12:25

22.7 C

1008.4 hpa

66 %

11.3 km/h aus 117

20.9 km/h aus S

16.0 C

23.1 C

22.7 C

23.1 C

409 W/m

0.00 mm

12:30

22.6 C

1008.4 hpa

65 %

9.7 km/h aus 114

19.3 km/h aus S

15.6 C

22.8 C

22.6 C

22.8 C

502 W/m

0.00 mm

12:35

23.2 C

1008.4 hpa

65 %

11.3 km/h aus 117

25.7 km/h aus S

16.2 C

23.7 C

23.2 C

23.7 C

565 W/m

0.00 mm

12:40

24.2 C

1008.4 hpa

64 %

8.0 km/h aus 114

22.5 km/h aus S

16.9 C

24.8 C

24.2 C

24.8 C

615 W/m

0.00 mm

12:45

24.3 C

1008.4 hpa

63 %

11.3 km/h aus 117

24.1 km/h aus S

16.8 C

24.9 C

24.3 C

24.9 C

610 W/m

0.00 mm

12:50

23.8 C

1008.4 hpa

63 %

14.5 km/h aus 114

25.7 km/h aus S

16.3 C

23.7 C

23.1 C

24.4 C

468 W/m

0.00 mm

12:55

24.1 C

1008.4 hpa

64 %

14.5 km/h aus 116

25.7 km/h aus SSE

16.8 C

24.0 C

23.3 C

24.7 C

574 W/m

0.00 mm

13:00

24.3 C

1008.3 hpa

63 %

8.0 km/h aus 117

17.7 km/h aus S

16.8 C

24.8 C

24.3 C

24.8 C

559 W/m

0.00 mm

13:05

24.1 C

1008.3 hpa

61 %

9.7 km/h aus 116

20.9 km/h aus S

16.1 C

24.6 C

24.1 C

24.6 C

564 W/m

0.00 mm

13:10

24.3 C

1008.3 hpa

64 %

12.9 km/h aus 116

24.1 km/h aus S

17.0 C

24.6 C

24.0 C

24.9 C

532 W/m

0.00 mm

13:15

24.2 C

1008.4 hpa

62 %

14.5 km/h aus 111

27.4 km/h aus S

16.4 C

24.0 C

23.4 C

24.7 C

465 W/m

0.00 mm

13:20

24.4 C

1008.4 hpa

61 %

11.3 km/h aus 115

20.9 km/h aus S

16.4 C

24.9 C

24.4 C

24.9 C

494 W/m

0.00 mm

13:25

24.2 C

1008.4 hpa

61 %

9.7 km/h aus 117

22.5 km/h aus S

16.2 C

24.7 C

24.2 C

24.7 C

404 W/m

0.00 mm

13:30

23.6 C

1008.4 hpa

63 %

16.1 km/h aus 116

22.5 km/h aus S

16.1 C

23.1 C

22.4 C

24.2 C

231 W/m

0.00 mm

13:35

23.3 C

1008.4 hpa

64 %

11.3 km/h aus 114

19.3 km/h aus SW

16.1 C

23.9 C

23.3 C

23.9 C

186 W/m

0.00 mm

13:40

23.2 C

1008.4 hpa

65 %

9.7 km/h aus 116

17.7 km/h aus S

16.2 C

23.7 C

23.2 C

23.7 C

227 W/m

0.00 mm

13:45

22.9 C

1008.4 hpa

64 %

12.9 km/h aus 117

19.3 km/h aus S

15.8 C

23.1 C

22.7 C

23.4 C

173 W/m

0.00 mm

13:50

22.9 C

1008.4 hpa

64 %

6.4 km/h aus 117

17.7 km/h aus S

15.8 C

23.4 C

22.9 C

23.4 C

264 W/m

0.00 mm

13:55

23.5 C

1008.4 hpa

64 %

3.2 km/h aus 113

11.3 km/h aus SSW

16.3 C

24.1 C

23.5 C

24.1 C

454 W/m

0.00 mm

14:00

23.7 C

1008.2 hpa

63 %

6.4 km/h aus 116

14.5 km/h aus S

16.2 C

24.3 C

23.7 C

24.3 C

264 W/m

0.00 mm

14:05

23.4 C

1008.2 hpa

64 %

4.8 km/h aus 116

17.7 km/h aus SSW

16.2 C

24.0 C

23.4 C

24.0 C

232 W/m

0.00 mm

14:10

23.3 C

1008.2 hpa

64 %

6.4 km/h aus 116

16.1 km/h aus SSW

16.1 C

23.9 C

23.3 C

23.9 C

212 W/m

0.00 mm

14:15

23.3 C

1008.0 hpa

64 %

4.8 km/h aus 115

16.1 km/h aus S

16.1 C

23.9 C

23.3 C

23.9 C

235 W/m

0.00 mm

14:20

23.2 C

1008.0 hpa

67 %

4.8 km/h aus 116

11.3 km/h aus SW

16.7 C

23.8 C

23.2 C

23.8 C

400 W/m

0.00 mm

14:25

23.9 C

1008.0 hpa

67 %

3.2 km/h aus 117

6.4 km/h aus WSW

17.4 C

24.7 C

23.9 C

24.7 C

614 W/m

0.00 mm

14:30

24.1 C

1007.6 hpa

63 %

1.6 km/h aus 116

8.0 km/h aus W

16.6 C

24.7 C

24.1 C

24.7 C

605 W/m

0.00 mm

14:35

24.5 C

1007.6 hpa

60 %

3.2 km/h aus 116

12.9 km/h aus SW

16.2 C

24.9 C

24.5 C

24.9 C

596 W/m

0.00 mm

14:40

24.7 C

1007.6 hpa

59 %

8.0 km/h aus 115

17.7 km/h aus S

16.2 C

25.1 C

24.7 C

25.1 C

577 W/m

0.00 mm

14:45

24.7 C

1007.5 hpa

59 %

8.0 km/h aus 117

20.9 km/h aus S

16.2 C

25.1 C

24.7 C

25.1 C

554 W/m

0.00 mm

14:50

25.1 C

1007.5 hpa

59 %

3.2 km/h aus 117

8.0 km/h aus SSW

16.5 C

25.4 C

25.1 C

25.4 C

578 W/m

0.00 mm

14:55

25.3 C

1007.5 hpa

59 %

8.0 km/h aus 114

22.5 km/h aus S

16.7 C

25.8 C

25.3 C

25.8 C

533 W/m

0.00 mm

15:00

25.0 C

1007.2 hpa

58 %

8.0 km/h aus 116

16.1 km/h aus S

16.2 C

25.3 C

25.0 C

25.3 C

433 W/m

0.00 mm

15:05

25.1 C

1007.2 hpa

57 %

11.3 km/h aus 117

20.9 km/h aus S

15.9 C

25.3 C

25.1 C

25.3 C

394 W/m

0.00 mm

15:10

25.3 C

1007.2 hpa

57 %

9.7 km/h aus 116

17.7 km/h aus SSW

16.2 C

25.7 C

25.3 C

25.7 C

424 W/m

0.00 mm

15:15

24.9 C

1007.2 hpa

56 %

4.8 km/h aus 115

16.1 km/h aus SSW

15.5 C

25.1 C

24.9 C

25.1 C

316 W/m

0.00 mm

15:20

25.3 C

1007.2 hpa

59 %

6.4 km/h aus 115

14.5 km/h aus SSW

16.7 C

25.8 C

25.3 C

25.8 C

538 W/m

0.00 mm

15:25

25.7 C

1007.2 hpa

55 %

4.8 km/h aus 116

20.9 km/h aus W

16.0 C

26.0 C

25.7 C

26.0 C

599 W/m

0.00 mm

15:30

25.9 C

1007.0 hpa

53 %

17.7 km/h aus 117

30.6 km/h aus S

15.6 C

25.0 C

24.8 C

26.2 C

573 W/m

0.00 mm

15:35

26.0 C

1007.0 hpa

54 %

14.5 km/h aus 114

22.5 km/h aus S

16.0 C

25.7 C

25.4 C

26.3 C

581 W/m

0.00 mm

15:40

26.2 C

1007.0 hpa

49 %

8.0 km/h aus 115

17.7 km/h aus SSW

14.6 C

26.2 C

26.2 C

26.2 C

586 W/m

0.00 mm

15:45

26.2 C

1006.9 hpa

47 %

14.5 km/h aus 116

27.4 km/h aus SSE

14.0 C

25.6 C

25.6 C

26.2 C

582 W/m

0.00 mm

15:50

26.3 C

1006.9 hpa

48 %

12.9 km/h aus 115

24.1 km/h aus S

14.4 C

26.1 C

26.1 C

26.3 C

573 W/m

0.00 mm

15:55

26.3 C

1006.9 hpa

51 %

11.3 km/h aus 115

17.7 km/h aus SSW

15.3 C

26.4 C

26.3 C

26.4 C

446 W/m

0.00 mm

16:00

25.9 C

1006.8 hpa

52 %

12.9 km/h aus 115

22.5 km/h aus S

15.3 C

25.9 C

25.7 C

26.1 C

218 W/m

0.00 mm

16:05

26.4 C

1006.8 hpa

51 %

12.9 km/h aus 117

20.9 km/h aus S

15.5 C

26.3 C

26.2 C

26.6 C

560 W/m

0.00 mm

16:10

26.4 C

1006.8 hpa

49 %

12.9 km/h aus 117

22.5 km/h aus S

14.9 C

26.2 C

26.2 C

26.4 C

563 W/m

0.00 mm

16:15

26.3 C

1006.5 hpa

51 %

11.3 km/h aus 116

19.3 km/h aus SSW

15.3 C

26.4 C

26.3 C

26.4 C

486 W/m

0.00 mm

16:20

26.5 C

1006.5 hpa

51 %

11.3 km/h aus 115

25.7 km/h aus S

15.5 C

26.6 C

26.5 C

26.6 C

541 W/m

0.00 mm

16:25

26.7 C

1006.5 hpa

49 %

11.3 km/h aus 117

27.4 km/h aus SSE

15.1 C

26.7 C

26.7 C

26.7 C

495 W/m

0.00 mm

16:30

26.4 C

1006.5 hpa

50 %

9.7 km/h aus 117

17.7 km/h aus SSW

15.1 C

26.4 C

26.4 C

26.4 C

287 W/m

0.00 mm

16:35

26.0 C

1006.5 hpa

50 %

8.0 km/h aus 116

16.1 km/h aus S

14.8 C

26.1 C

26.0 C

26.1 C

232 W/m

0.00 mm

16:40

25.4 C

1006.5 hpa

51 %

9.7 km/h aus 114

16.1 km/h aus S

14.6 C

25.5 C

25.4 C

25.5 C

168 W/m

0.00 mm

16:45

25.4 C

1006.5 hpa

51 %

9.7 km/h aus 116

19.3 km/h aus SSW

14.6 C

25.5 C

25.4 C

25.5 C

220 W/m

0.00 mm

16:50

25.7 C

1006.5 hpa

51 %

11.3 km/h aus 118

27.4 km/h aus SSE

14.8 C

25.8 C

25.7 C

25.8 C

334 W/m

0.00 mm

16:55

25.6 C

1006.5 hpa

50 %

11.3 km/h aus 114

22.5 km/h aus S

14.4 C

25.6 C

25.6 C

25.6 C

256 W/m

0.00 mm

17:00

25.4 C

1006.5 hpa

51 %

4.8 km/h aus 114

19.3 km/h aus SSW

14.5 C

25.4 C

25.4 C

25.4 C

148 W/m

0.00 mm

17:05

25.2 C

1006.5 hpa

51 %

12.9 km/h aus 116

24.1 km/h aus SSW

14.4 C

24.9 C

24.9 C

25.2 C

197 W/m

0.00 mm

17:10

25.2 C

1006.5 hpa

52 %

11.3 km/h aus 115

24.1 km/h aus SSW

14.6 C

25.2 C

25.2 C

25.2 C

288 W/m

0.00 mm

17:15

25.2 C

1006.7 hpa

52 %

4.8 km/h aus 115

16.1 km/h aus SSW

14.6 C

25.2 C

25.2 C

25.2 C

221 W/m

0.00 mm

17:20

25.1 C

1006.7 hpa

53 %

11.3 km/h aus 114

24.1 km/h aus SSW

14.8 C

25.1 C

25.1 C

25.1 C

189 W/m

0.00 mm

17:25

24.9 C

1006.7 hpa

53 %

12.9 km/h aus 116

32.2 km/h aus S

14.7 C

24.7 C

24.6 C

24.9 C

177 W/m

0.00 mm

17:30

24.8 C

1006.8 hpa

53 %

14.5 km/h aus 117

29.0 km/h aus SSW

14.5 C

24.2 C

24.1 C

24.8 C

168 W/m

0.00 mm

17:35

24.7 C

1006.8 hpa

55 %

4.8 km/h aus 117

16.1 km/h aus WSW

15.1 C

24.9 C

24.7 C

24.9 C

165 W/m

0.00 mm

17:40

24.4 C

1006.8 hpa

57 %

6.4 km/h aus 112

11.3 km/h aus W

15.4 C

24.7 C

24.4 C

24.7 C

162 W/m

0.00 mm

17:45

24.4 C

1006.9 hpa

58 %

6.4 km/h aus 116

14.5 km/h aus SSW

15.6 C

24.7 C

24.4 C

24.7 C

154 W/m

0.00 mm

17:50

23.9 C

1006.9 hpa

57 %

22.5 km/h aus 114

40.2 km/h aus S

14.9 C

22.3 C

22.0 C

24.3 C

156 W/m

0.00 mm

17:55

23.5 C

1006.9 hpa

56 %

14.5 km/h aus 116

25.7 km/h aus SW

14.2 C

23.0 C

22.8 C

23.7 C

141 W/m

0.00 mm

18:00

23.4 C

1006.9 hpa

58 %

14.5 km/h aus 114

27.4 km/h aus SW

14.7 C

22.9 C

22.7 C

23.7 C

125 W/m

0.00 mm

18:05

23.3 C

1006.9 hpa

58 %

14.5 km/h aus 113

27.4 km/h aus S

14.6 C

22.9 C

22.6 C

23.6 C

111 W/m

0.00 mm

18:10

23.2 C

1006.9 hpa

58 %

9.7 km/h aus 116

19.3 km/h aus SSW

14.4 C

23.4 C

23.2 C

23.4 C

101 W/m

0.00 mm

18:15

23.0 C

1007.4 hpa

57 %

12.9 km/h aus 115

25.7 km/h aus SSW

14.0 C

22.9 C

22.7 C

23.2 C

94 W/m

0.00 mm

18:20

22.8 C

1007.4 hpa

57 %

12.9 km/h aus 114

24.1 km/h aus S

13.9 C

22.7 C

22.6 C

22.9 C

90 W/m

0.00 mm

18:25

22.6 C

1007.4 hpa

57 %

8.0 km/h aus 116

20.9 km/h aus S

13.7 C

22.6 C

22.6 C

22.6 C

85 W/m

0.00 mm

18:30

22.4 C

1007.4 hpa

58 %

3.2 km/h aus 117

6.4 km/h aus S

13.8 C

22.4 C

22.4 C

22.4 C

85 W/m

0.00 mm

18:35

22.4 C

1007.4 hpa

59 %

6.4 km/h aus 114

12.9 km/h aus S

14.0 C

22.4 C

22.4 C

22.4 C

94 W/m

0.00 mm

18:40

22.3 C

1007.4 hpa

59 %

8.0 km/h aus 116

14.5 km/h aus SSW

13.9 C

22.2 C

22.3 C

22.2 C

111 W/m

0.00 mm

18:45

22.2 C

1007.4 hpa

60 %

8.0 km/h aus 106

14.5 km/h aus SSW

14.0 C

22.1 C

22.2 C

22.1 C

104 W/m

0.00 mm

18:50

22.1 C

1007.4 hpa

61 %

8.0 km/h aus 115

14.5 km/h aus S

14.2 C

22.0 C

22.1 C

22.0 C

88 W/m

0.00 mm

18:55

21.9 C

1007.4 hpa

63 %

8.0 km/h aus 118

14.5 km/h aus SSE

14.6 C

21.9 C

21.9 C

21.9 C

78 W/m

0.00 mm

19:00

21.8 C

1007.5 hpa

63 %

8.0 km/h aus 113

14.5 km/h aus S

14.4 C

21.7 C

21.8 C

21.7 C

71 W/m

0.00 mm

19:05

21.6 C

1007.5 hpa

65 %

14.5 km/h aus 100

27.4 km/h aus SSE

14.7 C

20.8 C

20.8 C

21.6 C

63 W/m

0.00 mm

19:10

21.3 C

1007.5 hpa

67 %

17.7 km/h aus 109

24.1 km/h aus S

15.0 C

19.9 C

19.9 C

21.3 C

50 W/m

0.00 mm

19:15

21.2 C

1007.5 hpa

69 %

17.7 km/h aus 115

22.5 km/h aus S

15.3 C

19.7 C

19.7 C

21.2 C

50 W/m

0.00 mm

19:20

20.9 C

1007.5 hpa

71 %

14.5 km/h aus 116

20.9 km/h aus S

15.5 C

20.3 C

20.2 C

21.1 C

48 W/m

0.00 mm

19:25

20.8 C

1007.5 hpa

72 %

12.9 km/h aus 114

20.9 km/h aus SSE

15.5 C

20.7 C

20.4 C

21.1 C

46 W/m

0.00 mm

19:30

20.6 C

1007.6 hpa

73 %

9.7 km/h aus 114

17.7 km/h aus S

15.5 C

21.0 C

20.6 C

21.0 C

48 W/m

0.00 mm

19:35

20.4 C

1007.6 hpa

73 %

8.0 km/h aus 115

16.1 km/h aus S

15.4 C

20.9 C

20.4 C

20.9 C

54 W/m

0.00 mm

19:40

20.3 C

1007.6 hpa

74 %

3.2 km/h aus 117

8.0 km/h aus S

15.5 C

20.8 C

20.3 C

20.8 C

60 W/m

0.00 mm

19:45

20.2 C

1007.8 hpa

75 %

4.8 km/h aus 114

11.3 km/h aus S

15.6 C

20.7 C

20.2 C

20.7 C

50 W/m

0.00 mm

19:50

20.1 C

1007.8 hpa

76 %

4.8 km/h aus 115

11.3 km/h aus S

15.7 C

20.6 C

20.1 C

20.6 C

42 W/m

0.00 mm

19:55

19.9 C

1007.8 hpa

77 %

4.8 km/h aus 116

11.3 km/h aus S

15.8 C

20.5 C

19.9 C

20.5 C

38 W/m

0.00 mm

20:00

19.8 C

1007.9 hpa

77 %

3.2 km/h aus 118

17.7 km/h aus S

15.7 C

20.4 C

19.8 C

20.4 C

30 W/m

0.00 mm

20:05

19.7 C

1007.9 hpa

77 %

3.2 km/h aus 117

9.7 km/h aus SSW

15.6 C

20.3 C

19.7 C

20.3 C

24 W/m

0.00 mm

20:10

19.6 C

1007.9 hpa

76 %

4.8 km/h aus 114

11.3 km/h aus SSW

15.3 C

20.1 C

19.6 C

20.1 C

17 W/m

0.00 mm

20:15

19.5 C

1007.9 hpa

77 %

3.2 km/h aus 116

9.7 km/h aus SSW

15.4 C

20.0 C

19.5 C

20.0 C

14 W/m

0.00 mm

20:20

19.4 C

1007.9 hpa

76 %

8.0 km/h aus 114

20.9 km/h aus S

15.1 C

19.9 C

19.4 C

19.9 C

16 W/m

0.00 mm

20:25

19.4 C

1007.9 hpa

76 %

4.8 km/h aus 115

16.1 km/h aus SSW

15.0 C

19.8 C

19.4 C

19.8 C

17 W/m

0.00 mm

20:30

19.3 C

1007.9 hpa

76 %

6.4 km/h aus 115

20.9 km/h aus SSW

14.9 C

19.7 C

19.3 C

19.7 C

15 W/m

0.00 mm

20:35

19.3 C

1007.9 hpa

76 %

1.6 km/h aus 113

6.4 km/h aus SSW

14.9 C

19.7 C

19.3 C

19.7 C

11 W/m

0.00 mm

20:40

19.2 C

1007.9 hpa

77 %

1.6 km/h aus 116

6.4 km/h aus SSW

15.1 C

19.7 C

19.2 C

19.7 C

9 W/m

0.00 mm

20:45

19.2 C

1007.6 hpa

77 %

3.2 km/h aus 116

11.3 km/h aus SSW

15.1 C

19.7 C

19.2 C

19.7 C

7 W/m

0.00 mm

20:50

19.2 C

1007.6 hpa

77 %

0.0 km/h aus 116

4.8 km/h aus SSW

15.0 C

19.6 C

19.2 C

19.6 C

7 W/m

0.00 mm

20:55

19.2 C

1007.6 hpa

77 %

0.0 km/h aus 113

6.4 km/h aus SSW

15.0 C

19.6 C

19.2 C

19.6 C

6 W/m

0.00 mm

21:00

19.1 C

1007.6 hpa

78 %

4.8 km/h aus 117

9.7 km/h aus SSW

15.2 C

19.6 C

19.1 C

19.6 C

3 W/m

0.00 mm

21:05

19.1 C

1007.6 hpa

78 %

3.2 km/h aus 118

8.0 km/h aus S

15.1 C

19.5 C

19.1 C

19.5 C

0 W/m

0.00 mm

21:10

19.0 C

1007.6 hpa

79 %

0.0 km/h aus 116

3.2 km/h aus S

15.3 C

19.5 C

19.0 C

19.5 C

0 W/m

0.00 mm

21:15

19.0 C

1007.5 hpa

79 %

3.2 km/h aus 115

11.3 km/h aus S

15.3 C

19.5 C

19.0 C

19.5 C

0 W/m

0.00 mm

21:20

18.9 C

1007.5 hpa

79 %

3.2 km/h aus 114

9.7 km/h aus SSW

15.2 C

19.4 C

18.9 C

19.4 C

0 W/m

0.00 mm

21:25

18.8 C

1007.5 hpa

80 %

4.8 km/h aus 116

9.7 km/h aus SW

15.3 C

19.3 C

18.8 C

19.3 C

0 W/m

0.00 mm

21:30

18.8 C

1007.8 hpa

80 %

3.2 km/h aus 117

9.7 km/h aus SW

15.3 C

19.3 C

18.8 C

19.3 C

0 W/m

0.00 mm

21:35

18.7 C

1007.8 hpa

80 %

4.8 km/h aus 117

9.7 km/h aus SW

15.2 C

19.2 C

18.7 C

19.2 C

0 W/m

0.00 mm

21:40

18.7 C

1007.8 hpa

81 %

6.4 km/h aus 114

17.7 km/h aus SSW

15.3 C

19.1 C

18.7 C

19.1 C

0 W/m

0.00 mm

21:45

18.7 C

1007.6 hpa

81 %

4.8 km/h aus 116

16.1 km/h aus SSW

15.3 C

19.1 C

18.7 C

19.1 C

0 W/m

0.00 mm

21:50

18.6 C

1007.6 hpa

81 %

1.6 km/h aus 117

6.4 km/h aus SSW

15.2 C

19.0 C

18.6 C

19.0 C

0 W/m

0.00 mm

21:55

18.6 C

1007.6 hpa

81 %

3.2 km/h aus 116

8.0 km/h aus SSW

15.2 C

19.0 C

18.6 C

19.0 C

0 W/m

0.00 mm

22:00

18.5 C

1007.7 hpa

82 %

9.7 km/h aus 113

19.3 km/h aus S

15.4 C

18.9 C

18.5 C

18.9 C

0 W/m

0.00 mm

22:05

18.4 C

1007.7 hpa

82 %

8.0 km/h aus 114

12.9 km/h aus S

15.3 C

18.9 C

18.4 C

18.9 C

0 W/m

0.00 mm

22:10

18.4 C

1007.7 hpa

83 %

6.4 km/h aus 118

11.3 km/h aus S

15.5 C

18.9 C

18.4 C

18.9 C

0 W/m

0.00 mm

22:15

18.4 C

1007.6 hpa

83 %

4.8 km/h aus 117

9.7 km/h aus S

15.4 C

18.8 C

18.4 C

18.8 C

0 W/m

0.00 mm

22:20

18.3 C

1007.6 hpa

83 %

6.4 km/h aus 117

9.7 km/h aus S

15.4 C

18.8 C

18.3 C

18.8 C

0 W/m

0.00 mm

22:25

18.3 C

1007.6 hpa

83 %

6.4 km/h aus 113

16.1 km/h aus S

15.3 C

18.7 C

18.3 C

18.7 C

0 W/m

0.00 mm

22:30

18.2 C

1007.5 hpa

83 %

9.7 km/h aus 116

16.1 km/h aus SSE

15.2 C

18.6 C

18.2 C

18.6 C

0 W/m

0.00 mm

22:35

18.1 C

1007.5 hpa

83 %

6.4 km/h aus 117

9.7 km/h aus S

15.2 C

18.5 C

18.1 C

18.5 C

0 W/m

0.00 mm

22:40

18.1 C

1007.5 hpa

83 %

1.6 km/h aus 116

6.4 km/h aus S

15.1 C

18.4 C

18.1 C

18.4 C

0 W/m

0.00 mm

22:45

18.0 C

1007.5 hpa

84 %

6.4 km/h aus 116

11.3 km/h aus S

15.3 C

18.4 C

18.0 C

18.4 C

0 W/m

0.00 mm

22:50

17.9 C

1007.5 hpa

84 %

4.8 km/h aus 114

8.0 km/h aus S

15.2 C

18.3 C

17.9 C

18.3 C

0 W/m

0.00 mm

22:55

17.9 C

1007.5 hpa

84 %

3.2 km/h aus 117

9.7 km/h aus S

15.2 C

18.3 C

17.9 C

18.3 C

0 W/m

0.00 mm

23:00

17.9 C

1007.3 hpa

84 %

3.2 km/h aus 117

6.4 km/h aus S

15.1 C

18.2 C

17.9 C

18.2 C

0 W/m

0.00 mm

23:05

17.8 C

1007.3 hpa

84 %

4.8 km/h aus 116

9.7 km/h aus S

15.1 C

18.2 C

17.8 C

18.2 C

0 W/m

0.00 mm

23:10

17.8 C

1007.3 hpa

84 %

3.2 km/h aus 116

8.0 km/h aus SSE

15.0 C

18.1 C

17.8 C

18.1 C

0 W/m

0.00 mm

23:15

17.8 C

1007.3 hpa

84 %

4.8 km/h aus 116

9.7 km/h aus SSE

15.0 C

18.1 C

17.8 C

18.1 C

0 W/m

0.00 mm

23:20

17.7 C

1007.3 hpa

84 %

6.4 km/h aus 116

11.3 km/h aus SSE

15.0 C

18.1 C

17.7 C

18.1 C

0 W/m

0.00 mm

23:25

17.7 C

1007.3 hpa

85 %

8.0 km/h aus 117

17.7 km/h aus S

15.1 C

18.0 C

17.7 C

18.0 C

0 W/m

0.00 mm

23:30

17.7 C

1007.4 hpa

85 %

8.0 km/h aus 116

17.7 km/h aus S

15.2 C

18.1 C

17.7 C

18.1 C

0 W/m

0.00 mm

23:35

17.7 C

1007.4 hpa

85 %

9.7 km/h aus 112

20.9 km/h aus S

15.1 C

18.0 C

17.7 C

18.0 C

0 W/m

0.00 mm

23:40

17.7 C

1007.4 hpa

85 %

12.9 km/h aus 117

20.9 km/h aus S

15.1 C

17.6 C

17.2 C

18.0 C

0 W/m

0.00 mm

23:45

17.7 C

1007.4 hpa

84 %

6.4 km/h aus 117

16.1 km/h aus SSE

14.9 C

18.0 C

17.7 C

18.0 C

0 W/m

0.00 mm

23:50

17.7 C

1007.4 hpa

84 %

6.4 km/h aus 117

12.9 km/h aus SSE

14.9 C

18.0 C

17.7 C

18.0 C

0 W/m

0.00 mm

23:55

17.7 C

1007.4 hpa

84 %

4.8 km/h aus 114

9.7 km/h aus SSE

14.9 C

18.0 C

17.7 C

18.0 C

0 W/m

0.00 mm